Regional Weather Roundup
Issued by NWS Upton, NY

Current Version | Previous Version | Text Only | Print | Product List | Glossary On
Versions: 1 2 3 4 5 6 7 8 9 10 11 12 13 14 15 16 17 18 19 20 21 22 23 24 25 26 27 28 29 30 31 32 33 34 35 36 37 38 39 40 41 42 43 44 45 46 47 48 49 50
000 ASUS41 KOKX 200108 RWROKX REGIONAL WEATHER ROUNDUP NATIONAL WEATHER SERVICE NEW YORK NY 900 PM EDT THU OCT 19 2017 NOTE: "FAIR" INDICATES FEW OR NO CLOUDS BELOW 12,000 FEET WITH NO SIGNIFICANT WEATHER AND/OR OBSTRUCTIONS TO VISIBILITY. NYZ071-072-176-178-NJZ106-104-200200- NEW YORK CITY METRO AREA CITY SKY/WX TMP DP RH WIND PRES REMARKS Central Park CLEAR 65 44 46 VRB5 30.11S Bronx Bot Gard N/A 66 43 42 W8 30.10S LaGuardia APRT PTCLDY 67 45 45 SW8 30.08S Kennedy INTL PTCLDY 63 51 65 SW15 30.10S Breezy Point N/A 61 N/A N/A SW8 N/A Newark/Liberty PTCLDY 64 44 48 SW13 30.09S Teterboro CLEAR 64 45 49 SW10 30.07S $$ NYZ177-179-078>081-200200- LONG ISLAND NEW YORK CITY SKY/WX TMP DP RH WIND PRES REMARKS Jones Beach N/A 63 N/A N/A SW9G16 N/A Matinecock PT N/A 64 N/A N/A SW13 N/A Farmingdale CLEAR 62 53 72 SW7 30.09S MacArthur/ISP PTCLDY 62 57 83 SW10 30.08S Shirley CLEAR 64 58 80 SW8 30.09S Mt Sinai Harb N/A N/A N/A N/A S7 N/A Westhampton CLEAR 62 55 77 SW13 30.10S East Hampton FAIR 60 56 85 SW9 30.08S Montauk N/A 62 57 83 VRB7 30.09F $$ NYZ052-065-067-200200- HUDSON VALLEY CITY SKY/WX TMP DP RH WIND PRES REMARKS White Plains CLEAR 63 43 48 VRB5 30.07S Larchmont Harb N/A 66 N/A N/A SW13 N/A Croton On Huds N/A 64 N/A N/A SW7 N/A Newburgh CLEAR 59 46 63 W6 30.08R Montgomery CLOUDY 57 45 64 SW10 30.06R Poughkeepsie CLOUDY 53 45 74 CALM 30.05R Albany CLOUDY 61 45 55 S7 29.99S $$ NJZ001-105-106-008-010-013-015-019>022-104-200200- NEW JERSEY CITY SKY/WX TMP DP RH WIND PRES REMARKS Newark/Liberty PTCLDY 64 44 48 SW13 30.09S Teterboro CLEAR 64 45 49 SW10 30.07S Caldwell CLEAR 60 48 64 SW3 30.09S Somerville CLEAR 51 47 86 CALM 30.09R Linden FAIR 64 43 47 CALM 30.09S Perth Amboy N/A 61 N/A N/A SW10 N/A Sussex CLEAR 53 46 77 CALM 30.09R Andover N/A 51 49 92 CALM 30.10R Trenton CLEAR 61 46 57 W3 30.11S Millville CLEAR 50 50 100 CALM 30.14F Atlantic City CLEAR 58 55 90 SW6 30.14S Wrightstown CLEAR 54 49 82 S3 30.10R Toms River N/A 52 48 86 S5 30.13S Belmar CLEAR 58 49 72 SW7 30.12S $$ PAZ047>061-062-071-200200- EASTERN PENNSYLVANIA CITY SKY/WX TMP DP RH WIND PRES REMARKS Philadelphia CLEAR 63 48 58 SW10 30.13S Allentown CLEAR 59 47 64 W5 30.11R Scranton CLEAR 61 45 55 SW7 30.10R $$ CTZ002-004>006-009-010-012-RIZ004-006-007-MAZ004-011-015-200200- SOUTHERN NEW ENGLAND IN CT CITY SKY/WX TMP DP RH WIND PRES REMARKS Bradley INTL PTCLDY 60 49 66 S12 30.03S Hartford CLEAR 59 51 75 S8 30.04S Danbury CLEAR 59 45 59 VRB3 30.07F Wtrbury/Oxford CLEAR 56 51 84 SW3 30.07S Norwalk Harbor N/A 64 N/A N/A SW17 N/A Bridgeport CLEAR 65 56 72 SW15 30.06S Meriden CLEAR 54 50 86 CALM 30.05F New Haven CLEAR 64 56 75 SW8G18 30.06F Chester FAIR 59 55 88 S6 30.07S Groton CLEAR 62 56 80 SW12 30.06F Wilimantic CLEAR 58 51 78 S5 30.05S IN RI CITY SKY/WX TMP DP RH WIND PRES REMARKS Providence PTCLDY 58 54 86 SW9 30.05F Block Island CLEAR 61 56 83 SW20G26 30.08F Westerly CLEAR 62 56 80 SW10G21 30.07F IN MA CITY SKY/WX TMP DP RH WIND PRES REMARKS Boston PTCLDY 61 49 64 SW21 29.99F Worcester CLEAR 56 44 64 SW20 30.02R Westfield CLEAR 59 45 59 S7 30.01S Provincetown CLEAR 59 56 89 SW17G25 30.03S Nantucket CLEAR 60 59 96 SW17 30.09F $$ ANZ330-335-338-340-345-350-353-355-200200- COASTAL MARINE OBSERVATIONS STATION/POSITION TIME SKY/WX TEMP WIND PRES VSBY WAVE AIR SEA DIR/SP/G HT/PER (UTC) (F) (DEG/KT/KT) (MB) (MI) (FT/S) NY HARB ENTRANCE 2350 65 65 220/ 16/ 17 1018.4 4/ 5 20 S FIRE ISLAND 2350 64 64 230/ 17/ 19 1019.3 5/ 9 GREAT SOUTH BAY 0030 64 62 230/ 14/ 17 N/A 15 E BARNEGAT LI 0030 66 N/A 4/ 9 HUDSON CANYON 2350 64 65 210/ 16/ 17 1019.6 3/ 9 KINGS POINT 0024 65 65 230/ 8/ 10 1019.3 EXECUTION ROCKS 0030 68 200/ 14/ 17 N/A WESTERN LI SOUND 2345 65 210/ 14/ 17 N/A 1 CENTRAL LI SOUND 0015 64 220/ 17/ 23 N/A 2 EASTERN LI SOUND NOT AVBL ROBBINS REEF 0024 66 230/ 11/ 15 1019.4 $$ >>>>>>>>>>>>>>>>>>>>>>>>>>>> KEY <<<<<<<<<<<<<<<<<<<<<<<<<<< > < > SKY/WX - Sky Condition/Present Weather < > TMP - Temperature in Fahrenheit < > DP - Dew Point in Fahrenheit < > RH - Relative Humidity in Percent < > WIND - Direction (from) and Speed in MPH < > PRES - Mean Sea Level Pressure (inches of Hg) < > WCI - Wind Chill Index < > VSB - VISIBILITY IN MILES < > HX - HEAT INDEX < > TC - TEMPERATURE IN CELSIUS < > VRB - VARIABLE WIND DIRECTION < > < >>>>>>>>>>>>>>>>>>>>>>>>>>>> KEY <<<<<<<<<<<<<<<<<<<<<<<<<<<

USA.gov is the U.S. government's official web portal to all federal, state and local government web resources and services.